Time,TemperatureF,DewpointF,PressureIn,WindDirection,WindDirectionDegrees,WindSpeedMPH,WindSpeedGustMPH,Humidity,HourlyPrecipIn,Conditions,Clouds,dailyrainin,SoftwareType,DateUTC
2013-02-07 00:01:00,39.9,36.0,30.14,North,360,0.0,-999.0,85,-99.99,,,0.00,weatherlink.com 1.10,2013-02-07 08:01:00,
2013-02-07 00:16:00,40.2,36.0,30.13,North,360,0.0,-999.0,86,-99.99,,,0.00,weatherlink.com 1.10,2013-02-07 08:16:00,
2013-02-07 00:31:00,39.9,36.0,30.13,North,360,0.0,-999.0,85,-99.99,,,0.00,weatherlink.com 1.10,2013-02-07 08:31:00,
2013-02-07 00:46:00,39.2,35.0,30.13,North,360,0.0,-999.0,85,-99.99,,,0.00,weatherlink.com 1.10,2013-02-07 08:46:00,
2013-02-07 01:01:00,38.8,35.0,30.13,North,360,0.0,-999.0,86,-99.99,,,0.00,weatherlink.com 1.10,2013-02-07 09:01:00,
2013-02-07 01:16:00,38.6,35.0,30.13,North,360,0.0,-999.0,87,-99.99,,,0.00,weatherlink.com 1.10,2013-02-07 09:16:00,
2013-02-07 01:31:00,38.5,35.0,30.12,North,360,0.0,-999.0,87,-99.99,,,0.00,weatherlink.com 1.10,2013-02-07 09:31:00,
2013-02-07 01:46:00,38.2,35.0,30.12,North,360,0.0,-999.0,87,-99.99,,,0.00,weatherlink.com 1.10,2013-02-07 09:46:00,
2013-02-07 02:01:00,37.8,34.0,30.12,North,360,0.0,-999.0,87,-99.99,,,0.00,weatherlink.com 1.10,2013-02-07 10:01:00,
2013-02-07 02:16:00,37.5,34.0,30.13,North,360,0.0,-999.0,88,-99.99,,,0.00,weatherlink.com 1.10,2013-02-07 10:16:00,
2013-02-07 02:31:00,37.5,35.0,30.12,North,360,0.0,-999.0,89,-99.99,,,0.00,weatherlink.com 1.10,2013-02-07 10:31:00,
2013-02-07 02:46:00,37.6,35.0,30.12,North,360,0.0,-999.0,89,-99.99,,,0.00,weatherlink.com 1.10,2013-02-07 10:46:00,
2013-02-07 03:01:00,37.8,35.0,30.12,North,360,0.0,-999.0,90,-99.99,,,0.00,weatherlink.com 1.10,2013-02-07 11:01:00,
2013-02-07 03:16:00,38.0,35.0,30.11,North,360,0.0,-999.0,90,-99.99,,,0.00,weatherlink.com 1.10,2013-02-07 11:16:00,
2013-02-07 03:31:00,38.3,36.0,30.11,North,360,0.0,-999.0,91,-99.99,,,0.00,weatherlink.com 1.10,2013-02-07 11:31:00,
2013-02-07 03:46:00,38.6,36.0,30.10,North,360,0.0,-999.0,91,-99.99,,,0.00,weatherlink.com 1.10,2013-02-07 11:46:00,
2013-02-07 04:01:00,39.1,37.0,30.10,North,360,0.0,-999.0,92,-99.99,,,0.00,weatherlink.com 1.10,2013-02-07 12:01:00,
2013-02-07 04:16:00,39.5,37.0,30.09,North,360,0.0,-999.0,92,-99.99,,,0.00,weatherlink.com 1.10,2013-02-07 12:16:00,
2013-02-07 04:31:00,39.6,38.0,30.09,North,360,0.0,-999.0,92,-99.99,,,0.01,weatherlink.com 1.10,2013-02-07 12:31:00,
2013-02-07 04:46:00,39.9,38.0,30.09,North,360,0.0,-999.0,93,-99.99,,,0.01,weatherlink.com 1.10,2013-02-07 12:46:00,
2013-02-07 05:01:00,40.1,38.0,30.09,North,360,0.0,-999.0,93,-99.99,,,0.01,weatherlink.com 1.10,2013-02-07 13:01:00,
2013-02-07 05:16:00,40.2,38.0,30.09,North,360,0.0,-999.0,93,-99.99,,,0.02,weatherlink.com 1.10,2013-02-07 13:16:00,
2013-02-07 05:31:00,40.3,39.0,30.08,North,360,0.0,-999.0,93,-99.99,,,0.02,weatherlink.com 1.10,2013-02-07 13:31:00,
2013-02-07 05:46:00,40.6,39.0,30.07,SE,130,0.0,-999.0,93,-99.99,,,0.03,weatherlink.com 1.10,2013-02-07 13:46:00,
2013-02-07 06:01:00,40.6,39.0,30.07,SE,130,0.0,-999.0,93,-99.99,,,0.03,weatherlink.com 1.10,2013-02-07 14:01:00,
2013-02-07 06:16:00,40.8,39.0,30.08,SE,130,0.0,-999.0,93,-99.99,,,0.04,weatherlink.com 1.10,2013-02-07 14:16:00,
2013-02-07 06:31:00,40.8,39.0,30.07,SE,130,0.0,-999.0,94,-99.99,,,0.04,weatherlink.com 1.10,2013-02-07 14:31:00,
2013-02-07 06:46:00,40.9,39.0,30.07,SE,130,0.0,-999.0,94,-99.99,,,0.05,weatherlink.com 1.10,2013-02-07 14:46:00,
2013-02-07 07:01:00,41.1,40.0,30.06,SE,130,0.0,-999.0,94,-99.99,,,0.06,weatherlink.com 1.10,2013-02-07 15:01:00,
2013-02-07 07:16:00,41.2,40.0,30.06,SE,130,0.0,-999.0,94,-99.99,,,0.06,weatherlink.com 1.10,2013-02-07 15:16:00,
2013-02-07 07:31:00,41.5,40.0,30.06,SE,130,0.0,-999.0,94,-99.99,,,0.08,weatherlink.com 1.10,2013-02-07 15:31:00,
2013-02-07 07:46:00,41.8,41.0,30.07,SE,130,0.0,-999.0,95,-99.99,,,0.09,weatherlink.com 1.10,2013-02-07 15:46:00,
2013-02-07 08:01:00,42.1,41.0,30.08,ENE,74,3.0,-999.0,95,-99.99,,,0.10,weatherlink.com 1.10,2013-02-07 16:01:00,
2013-02-07 08:16:00,42.6,41.0,30.09,NNE,22,1.0,-999.0,95,-99.99,,,0.11,weatherlink.com 1.10,2013-02-07 16:16:00,
2013-02-07 08:31:00,43.1,42.0,30.09,WNW,284,0.0,-999.0,95,-99.99,,,0.11,weatherlink.com 1.10,2013-02-07 16:31:00,
2013-02-07 08:46:00,43.3,42.0,30.09,WNW,284,0.0,-999.0,95,-99.99,,,0.11,weatherlink.com 1.10,2013-02-07 16:46:00,
2013-02-07 09:01:00,43.9,43.0,30.09,WNW,284,0.0,-999.0,95,-99.99,,,0.11,weatherlink.com 1.10,2013-02-07 17:01:00,
2013-02-07 09:16:00,44.5,43.0,30.09,WNW,284,0.0,-999.0,95,-99.99,,,0.11,weatherlink.com 1.10,2013-02-07 17:16:00,
2013-02-07 09:31:00,44.9,44.0,30.09,WNW,284,0.0,-999.0,95,-99.99,,,0.11,weatherlink.com 1.10,2013-02-07 17:31:00,
2013-02-07 09:46:00,46.1,45.0,30.09,WNW,284,0.0,-999.0,96,-99.99,,,0.11,weatherlink.com 1.10,2013-02-07 17:46:00,
2013-02-07 10:01:00,47.6,47.0,30.09,WNW,284,0.0,-999.0,96,-99.99,,,0.11,weatherlink.com 1.10,2013-02-07 18:01:00,
2013-02-07 10:16:00,48.2,47.0,30.09,SE,142,2.0,-999.0,95,-99.99,,,0.11,weatherlink.com 1.10,2013-02-07 18:16:00,
2013-02-07 10:31:00,48.9,47.0,30.09,SE,142,2.0,-999.0,94,-99.99,,,0.11,weatherlink.com 1.10,2013-02-07 18:31:00,
2013-02-07 10:46:00,50.5,44.0,30.09,WNW,284,1.0,-999.0,79,-99.99,,,0.11,weatherlink.com 1.10,2013-02-07 18:46:00,
2013-02-07 11:02:00,53.5,43.0,30.09,NW,326,5.0,-999.0,68,-99.99,,,0.11,weatherlink.com 1.10,2013-02-07 19:02:00,
2013-02-07 11:17:00,54.1,43.0,30.09,WNW,294,3.0,-999.0,66,-99.99,,,0.11,weatherlink.com 1.10,2013-02-07 19:17:00,
2013-02-07 11:32:00,54.2,43.0,30.08,WNW,294,4.0,-999.0,65,-99.99,,,0.11,weatherlink.com 1.10,2013-02-07 19:32:00,
2013-02-07 11:47:00,54.4,41.0,30.08,NW,315,0.0,-999.0,60,-99.99,,,0.11,weatherlink.com 1.10,2013-02-07 19:47:00,
2013-02-07 12:17:00,54.5,39.0,30.06,North,360,0.0,-999.0,57,-99.99,,,0.11,weatherlink.com 1.10,2013-02-07 20:17:00,
2013-02-07 12:32:00,55.7,40.0,30.05,WNW,289,3.0,-999.0,57,-99.99,,,0.11,weatherlink.com 1.10,2013-02-07 20:32:00,
2013-02-07 12:47:00,55.7,36.0,30.05,WNW,285,7.0,-999.0,47,-99.99,,,0.11,weatherlink.com 1.10,2013-02-07 20:47:00,
2013-02-07 13:02:00,54.8,36.0,30.05,West,262,4.0,-999.0,50,-99.99,,,0.11,weatherlink.com 1.10,2013-02-07 21:02:00,
2013-02-07 13:17:00,55.0,35.0,30.04,WNW,300,5.0,-999.0,47,-99.99,,,0.11,weatherlink.com 1.10,2013-02-07 21:17:00,
2013-02-07 13:32:00,55.6,35.0,30.03,WNW,300,5.0,-999.0,46,-99.99,,,0.11,weatherlink.com 1.10,2013-02-07 21:32:00,
2013-02-07 13:47:00,55.4,35.0,30.03,West,281,4.0,-999.0,47,-99.99,,,0.11,weatherlink.com 1.10,2013-02-07 21:47:00,
2013-02-07 14:02:00,55.6,37.0,30.02,NW,322,2.0,-999.0,49,-99.99,,,0.11,weatherlink.com 1.10,2013-02-07 22:02:00,
2013-02-07 14:17:00,55.3,36.0,30.02,NW,312,2.0,-999.0,48,-99.99,,,0.11,weatherlink.com 1.10,2013-02-07 22:17:00,
2013-02-07 14:32:00,53.9,37.0,30.02,NW,323,2.0,-999.0,54,-99.99,,,0.11,weatherlink.com 1.10,2013-02-07 22:32:00,
2013-02-07 14:47:00,53.6,38.0,30.01,NNE,19,0.0,-999.0,55,-99.99,,,0.11,weatherlink.com 1.10,2013-02-07 22:47:00,
2013-02-07 15:02:00,55.0,37.0,30.01,WNW,286,2.0,-999.0,51,-99.99,,,0.11,weatherlink.com 1.10,2013-02-07 23:02:00,
2013-02-07 15:32:00,54.4,35.0,30.01,NW,311,0.0,-999.0,49,-99.99,,,0.11,weatherlink.com 1.10,2013-02-07 23:32:00,
2013-02-07 15:47:00,54.4,33.0,30.00,WSW,250,4.0,-999.0,45,-99.99,,,0.11,weatherlink.com 1.10,2013-02-07 23:47:00,
2013-02-07 16:02:00,53.8,34.0,30.00,West,277,2.0,-999.0,48,-99.99,,,0.11,weatherlink.com 1.10,2013-02-08 00:02:00,
2013-02-07 16:17:00,53.5,35.0,30.00,WNW,292,6.0,-999.0,49,-99.99,,,0.11,weatherlink.com 1.10,2013-02-08 00:17:00,
2013-02-07 16:32:00,52.8,35.0,30.00,WNW,302,4.0,-999.0,51,-99.99,,,0.11,weatherlink.com 1.10,2013-02-08 00:32:00,
2013-02-07 16:47:00,51.7,35.0,30.00,West,260,5.0,-999.0,53,-99.99,,,0.11,weatherlink.com 1.10,2013-02-08 00:47:00,
2013-02-07 17:02:00,51.0,36.0,30.00,WNW,289,6.0,-999.0,56,-99.99,,,0.11,weatherlink.com 1.10,2013-02-08 01:02:00,
2013-02-07 17:17:00,50.1,36.0,30.00,WSW,254,0.0,-999.0,58,-99.99,,,0.11,weatherlink.com 1.10,2013-02-08 01:17:00,
2013-02-07 17:32:00,49.4,36.0,30.00,WNW,288,2.0,-999.0,60,-99.99,,,0.11,weatherlink.com 1.10,2013-02-08 01:32:00,
2013-02-07 17:47:00,48.3,36.0,30.00,West,279,5.0,-999.0,63,-99.99,,,0.11,weatherlink.com 1.10,2013-02-08 01:47:00,
2013-02-07 18:02:00,47.7,36.0,30.00,West,281,2.0,-999.0,65,-99.99,,,0.11,weatherlink.com 1.10,2013-02-08 02:02:00,
2013-02-07 18:17:00,47.3,37.0,30.00,WNW,285,6.0,-999.0,67,-99.99,,,0.11,weatherlink.com 1.10,2013-02-08 02:17:00,
2013-02-07 18:32:00,46.8,37.0,30.00,West,280,9.0,-999.0,70,-99.99,,,0.11,weatherlink.com 1.10,2013-02-08 02:32:00,
2013-02-07 18:47:00,46.0,37.0,30.00,WNW,292,5.0,-999.0,72,-99.99,,,0.11,weatherlink.com 1.10,2013-02-08 02:47:00,
2013-02-07 19:02:00,45.7,37.0,30.00,WNW,293,2.0,-999.0,73,-99.99,,,0.11,weatherlink.com 1.10,2013-02-08 03:02:00,
2013-02-07 19:17:00,45.4,38.0,30.00,WNW,294,2.0,-999.0,74,-99.99,,,0.11,weatherlink.com 1.10,2013-02-08 03:17:00,
2013-02-07 19:32:00,45.2,38.0,30.00,WNW,298,0.0,-999.0,75,-99.99,,,0.11,weatherlink.com 1.10,2013-02-08 03:32:00,
2013-02-07 19:47:00,44.6,37.0,30.00,WNW,298,2.0,-999.0,75,-99.99,,,0.11,weatherlink.com 1.10,2013-02-08 03:47:00,
2013-02-07 20:02:00,43.9,37.0,30.00,WNW,298,3.0,-999.0,77,-99.99,,,0.11,weatherlink.com 1.10,2013-02-08 04:02:00,
2013-02-07 20:17:00,43.2,37.0,30.00,WNW,298,2.0,-999.0,79,-99.99,,,0.11,weatherlink.com 1.10,2013-02-08 04:17:00,
2013-02-07 20:32:00,42.6,37.0,30.00,WNW,298,2.0,-999.0,80,-99.99,,,0.11,weatherlink.com 1.10,2013-02-08 04:32:00,
2013-02-07 20:47:00,42.6,37.0,30.00,WNW,298,0.0,-999.0,80,-99.99,,,0.11,weatherlink.com 1.10,2013-02-08 04:47:00,
2013-02-07 21:02:00,42.3,37.0,29.99,WNW,298,0.0,-999.0,80,-99.99,,,0.11,weatherlink.com 1.10,2013-02-08 05:02:00,
2013-02-07 21:17:00,41.8,36.0,29.99,WNW,298,0.0,-999.0,81,-99.99,,,0.11,weatherlink.com 1.10,2013-02-08 05:17:00,
2013-02-07 21:32:00,40.8,36.0,29.99,WNW,298,0.0,-999.0,82,-99.99,,,0.11,weatherlink.com 1.10,2013-02-08 05:32:00,
2013-02-07 21:47:00,39.8,35.0,29.98,WNW,298,0.0,-999.0,83,-99.99,,,0.11,weatherlink.com 1.10,2013-02-08 05:47:00,
2013-02-07 22:02:00,38.9,35.0,29.98,WNW,298,0.0,-999.0,84,-99.99,,,0.11,weatherlink.com 1.10,2013-02-08 06:02:00,
2013-02-07 22:17:00,38.3,34.0,29.98,WNW,298,0.0,-999.0,84,-99.99,,,0.11,weatherlink.com 1.10,2013-02-08 06:17:00,
2013-02-07 22:32:00,37.9,34.0,29.98,WNW,298,0.0,-999.0,86,-99.99,,,0.11,weatherlink.com 1.10,2013-02-08 06:32:00,
2013-02-07 22:47:00,37.5,34.0,29.98,WNW,298,0.0,-999.0,87,-99.99,,,0.11,weatherlink.com 1.10,2013-02-08 06:47:00,
2013-02-07 23:02:00,37.0,34.0,29.97,WNW,298,0.0,-999.0,87,-99.99,,,0.11,weatherlink.com 1.10,2013-02-08 07:02:00,
2013-02-07 23:17:00,36.6,33.0,29.97,WNW,298,0.0,-999.0,88,-99.99,,,0.11,weatherlink.com 1.10,2013-02-08 07:17:00,
2013-02-07 23:32:00,36.5,33.0,29.97,WNW,298,0.0,-999.0,88,-99.99,,,0.11,weatherlink.com 1.10,2013-02-08 07:32:00,
2013-02-07 23:47:00,36.3,33.0,29.97,WNW,298,0.0,-999.0,89,-99.99,,,0.11,weatherlink.com 1.10,2013-02-08 07:47:00,